When you browse on this site, cookies collect data to enhance your experience and personalize the content and advertising you see.
Visit our Privacy Policy to learn more. By continuing to use the site, you agree to this use of cookies and data.
  • In Sweden
  • List of Countries
  • For 7 days
  • Water Temperature
  • Satellite Maps
  • Weather Map
  • Weather Widgets
  • user-avatar
    Login

    Hourly Weather Çağlayancerit

    Today, 19 November, Monday

    Time Temperature Precipitation Wind Pressure Humidity
    00:00 +6°C° 0 mm 1 mps 668 mmHg 60%
    01:00 +6°C° 0 mm 1 mps 668 mmHg 60%
    02:00 +5°C° 0 mm 0 mps 667 mmHg 61%
    03:00 +6°C° 0 mm 1 mps 668 mmHg 61%
    04:00 +6°C° 0 mm 1 mps 668 mmHg 61%
    05:00 +6°C° 0 mm 1 mps 668 mmHg 60%
    06:00 +7°C° 0 mm 1 mps 668 mmHg 59%
    07:00 +8°C° 0 mm 1 mps 668 mmHg 57%
    08:00 +9°C° 0 mm 1 mps 669 mmHg 55%
    09:00 +10°C° 0 mm 1 mps 669 mmHg 51%
    10:00 +11°C° 0 mm 1 mps 669 mmHg 47%
    11:00 +12°C° 0 mm 1 mps 669 mmHg 43%
    12:00 +13°C° 0 mm 1 mps 669 mmHg 43%
    13:00 +13°C° 0 mm 1 mps 669 mmHg 42%
    14:00 +13°C° 0 mm 1 mps 669 mmHg 42%
    15:00 +12°C° 0 mm 1 mps 669 mmHg 47%
    16:00 +11°C° 0 mm 1 mps 668 mmHg 52%
    17:00 +8°C° 0 mm 0 mps 668 mmHg 57%
    18:00 +8°C° 0 mm 0 mps 668 mmHg 58%
    19:00 +7°C° 0 mm 0 mps 668 mmHg 59%
    20:00 +7°C° 0 mm 0 mps 668 mmHg 60%
    21:00 +7°C° 0 mm 0 mps 668 mmHg 60%
    22:00 +6°C° 0 mm 0 mps 668 mmHg 61%
    23:00 +6°C° 0 mm 0 mps 668 mmHg 61%

    Tomorrow, 20 November, Tuesday

    Time Temperature Precipitation Wind Pressure Humidity
    00:00 +6°C° 0 mm 0 mps 668 mmHg 61%
    01:00 +6°C° 0 mm 0 mps 668 mmHg 60%
    02:00 +6°C° 0 mm 0 mps 668 mmHg 60%
    03:00 +6°C° 0 mm 0 mps 668 mmHg 60%
    04:00 +6°C° 0 mm 0 mps 668 mmHg 59%
    05:00 +6°C° 0 mm 0 mps 668 mmHg 59%
    06:00 +8°C° 0 mm 1 mps 669 mmHg 56%
    07:00 +9°C° 0 mm 1 mps 669 mmHg 53%
    08:00 +10°C° 0 mm 1 mps 670 mmHg 51%
    09:00 +12°C° 0 mm 1 mps 670 mmHg 46%
    10:00 +13°C° 0 mm 1 mps 670 mmHg 40%
    11:00 +15°C° 0 mm 1 mps 670 mmHg 35%
    12:00 +15°C° 0 mm 1 mps 670 mmHg 34%
    13:00 +15°C° 0 mm 1 mps 670 mmHg 33%
    14:00 +16°C° 0 mm 1 mps 670 mmHg 32%
    15:00 +14°C° 0 mm 1 mps 669 mmHg 37%
    16:00 +13°C° 0 mm 1 mps 669 mmHg 42%
    17:00 +11°C° 0 mm 1 mps 668 mmHg 47%
    18:00 +11°C° 0 mm 1 mps 668 mmHg 47%
    19:00 +10°C° 0 mm 1 mps 668 mmHg 48%
    20:00 +10°C° 0 mm 1 mps 668 mmHg 48%
    21:00 +10°C° 0 mm 1 mps 668 mmHg 48%
    22:00 +9°C° 0 mm 1 mps 668 mmHg 49%
    23:00 +9°C° 0 mm 1 mps 668 mmHg 49%

    Day after tomorrow, 21 November, Wednesday

    Time Temperature Precipitation Wind Pressure Humidity
    00:00 +9°C° 0 mm 1 mps 667 mmHg 50%
    01:00 +8°C° 0 mm 1 mps 667 mmHg 51%
    02:00 +7°C° 0 mm 0 mps 667 mmHg 52%
    03:00 +7°C° 0 mm 0 mps 666 mmHg 52%
    04:00 +7°C° 0 mm 0 mps 666 mmHg 52%
    05:00 +7°C° 0 mm 0 mps 666 mmHg 52%
    06:00 +8°C° 0 mm 0 mps 666 mmHg 51%
    07:00 +9°C° 0 mm 0 mps 667 mmHg 51%
    08:00 +10°C° 0 mm 0 mps 667 mmHg 50%
    09:00 +11°C° 0 mm 0 mps 667 mmHg 47%
    10:00 +12°C° 0 mm 0 mps 667 mmHg 44%
    11:00 +14°C° 0 mm 1 mps 667 mmHg 40%
    12:00 +14°C° 0 mm 1 mps 667 mmHg 41%
    13:00 +14°C° 0 mm 1 mps 666 mmHg 41%
    14:00 +14°C° 0 mm 1 mps 666 mmHg 41%
    15:00 +13°C° 0 mm 1 mps 666 mmHg 47%
    16:00 +12°C° 0 mm 1 mps 665 mmHg 53%
    17:00 +11°C° 0 mm 1 mps 665 mmHg 58%
    18:00 +11°C° 0 mm 1 mps 665 mmHg 61%
    19:00 +11°C° 0 mm 1 mps 665 mmHg 63%
    20:00 +10°C° 0 mm 1 mps 665 mmHg 66%
    21:00 +10°C° 0.1 mm 1 mps 665 mmHg 67%
    22:00 +10°C° 0.1 mm 1 mps 665 mmHg 69%
    23:00 +10°C° 0.1 mm 1 mps 664 mmHg 70%

    22 November, Thursday

    Time Temperature Precipitation Wind Pressure Humidity
    00:00 +10°C° 0.3 mm 1 mps 664 mmHg 72%
    01:00 +9°C° 0.3 mm 1 mps 664 mmHg 73%
    02:00 +9°C° 0.3 mm 1 mps 664 mmHg 74%
    03:00 +9°C° 0.3 mm 1 mps 664 mmHg 76%
    04:00 +9°C° 0.3 mm 1 mps 664 mmHg 78%
    05:00 +8°C° 0.3 mm 1 mps 664 mmHg 79%
    06:00 +9°C° 0.1 mm 1 mps 664 mmHg 78%
    07:00 +9°C° 0.1 mm 1 mps 664 mmHg 76%
    08:00 +9°C° 0.1 mm 1 mps 665 mmHg 75%
    09:00 +10°C° 0.1 mm 1 mps 664 mmHg 72%
    10:00 +11°C° 0.1 mm 1 mps 664 mmHg 70%
    11:00 +11°C° 0.1 mm 1 mps 664 mmHg 67%
    12:00 +12°C° 0.1 mm 1 mps 664 mmHg 66%
    13:00 +12°C° 0.1 mm 1 mps 664 mmHg 66%
    14:00 +12°C° 0.1 mm 1 mps 664 mmHg 65%
    15:00 +11°C° 0 mm 1 mps 664 mmHg 69%
    16:00 +11°C° 0 mm 1 mps 663 mmHg 73%
    17:00 +10°C° 0 mm 1 mps 663 mmHg 77%
    18:00 +10°C° 0 mm 1 mps 664 mmHg 80%
    19:00 +9°C° 0 mm 1 mps 664 mmHg 82%
    20:00 +9°C° 0 mm 1 mps 664 mmHg 85%
    21:00 +9°C° 0 mm 1 mps 664 mmHg 87%
    22:00 +8°C° 0 mm 1 mps 664 mmHg 88%
    23:00 +7°C° 0 mm 0 mps 664 mmHg 89%

    23 November, Friday

    Time Temperature Precipitation Wind Pressure Humidity
    00:00 +7°C° 0 mm 0 mps 663 mmHg 90%
    01:00 +7°C° 0 mm 0 mps 663 mmHg 90%
    02:00 +6°C° 0 mm 0 mps 663 mmHg 90%
    03:00 +7°C° 0 mm 1 mps 663 mmHg 90%
    04:00 +7°C° 0 mm 1 mps 663 mmHg 90%
    05:00 +7°C° 0 mm 1 mps 663 mmHg 89%
    06:00 +8°C° 0 mm 1 mps 664 mmHg 86%
    07:00 +8°C° 0 mm 1 mps 664 mmHg 82%
    08:00 +9°C° 0 mm 1 mps 665 mmHg 78%
    09:00 +10°C° 0.1 mm 1 mps 665 mmHg 74%
    10:00 +9°C° 0.1 mm 2 mps 665 mmHg 69%
    11:00 +10°C° 0.1 mm 2 mps 665 mmHg 65%
    12:00 +10°C° 0.1 mm 2 mps 664 mmHg 63%
    13:00 +12°C° 0.1 mm 2 mps 664 mmHg 61%
    14:00 +12°C° 0.1 mm 2 mps 664 mmHg 60%
    15:00 +10°C° 0 mm 2 mps 664 mmHg 63%
    16:00 +10°C° 0 mm 2 mps 664 mmHg 66%
    17:00 +9°C° 0 mm 2 mps 664 mmHg 69%
    18:00 +9°C° 0 mm 2 mps 664 mmHg 71%
    19:00 +8°C° 0 mm 2 mps 665 mmHg 73%
    20:00 +8°C° 0 mm 2 mps 665 mmHg 76%
    21:00 +8°C° 0 mm 2 mps 665 mmHg 76%
    22:00 +7°C° 0 mm 2 mps 665 mmHg 77%
    23:00 +7°C° 0 mm 2 mps 665 mmHg 78%

    24 November, Saturday

    Time Temperature Precipitation Wind Pressure Humidity
    00:00 +7°C° 0 mm 2 mps 665 mmHg 78%
    01:00 +7°C° 0 mm 2 mps 665 mmHg 77%
    02:00 +6°C° 0 mm 2 mps 665 mmHg 77%
    03:00 +6°C° 0 mm 2 mps 665 mmHg 77%
    04:00 +6°C° 0 mm 2 mps 666 mmHg 77%
    05:00 +6°C° 0 mm 2 mps 666 mmHg 77%
    06:00 +5°C° 0 mm 3 mps 666 mmHg 75%
    07:00 +7°C° 0 mm 3 mps 667 mmHg 74%
    08:00 +7°C° 0 mm 3 mps 667 mmHg 73%
    09:00 +8°C° 0.1 mm 3 mps 667 mmHg 73%
    10:00 +8°C° 0.1 mm 3 mps 667 mmHg 73%
    11:00 +9°C° 0.1 mm 3 mps 667 mmHg 73%
    12:00 +9°C° 0.3 mm 3 mps 667 mmHg 74%
    13:00 +9°C° 0.3 mm 3 mps 667 mmHg 75%
    14:00 +9°C° 0.3 mm 3 mps 666 mmHg 75%
    15:00 +9°C° 0.5 mm 3 mps 666 mmHg 78%
    16:00 +8°C° 0.5 mm 2 mps 667 mmHg 80%
    17:00 +8°C° 0.5 mm 2 mps 667 mmHg 83%
    18:00 +8°C° 0.3 mm 2 mps 667 mmHg 83%
    19:00 +8°C° 0.3 mm 2 mps 667 mmHg 84%
    20:00 +8°C° 0.3 mm 2 mps 667 mmHg 85%
    21:00 +8°C° 0.4 mm 2 mps 667 mmHg 85%
    22:00 +7°C° 0.4 mm 2 mps 667 mmHg 85%
    23:00 +7°C° 0.4 mm 2 mps 667 mmHg 86%
    Show more